SCP
0 0 0 0 0 0 0 0 0 0 0 0 0 0 0 0 0 0 0 0 0 0 0 0 0 0 0 0 0 0 0 0 0 0 0 0 0 0 0 0 0 0 0
0 0 0 0 0 0 0 0 0 0 0 0 0 0 0 0 0 0 0 0 0 0 0 0 0 0 0 0 0 0 0 0 0 0 0 0 0 0 0 0 0 0 0
0 0 0 0 0 0 0 0 0 0 0 0 0 0 0 0 0 0 0 0 0 0 0 0 0 0 0 0 0 0 0 0 0 0 0 0 0 0 0 0 0 0 0
0 0 0 0 0 0 0 0 0 0 0 0 0 0 0 0 0 0 0 0 0 0 0 0 0 0 0 0 0 0 0 0 0 0 0 0 0 0 0 0 0 0 0
0 0 0 0 0 0 0 0 0 0 0 0 0 0 0 0 0 0 0 0 0 0 0 0 0 0 0 0 0 0 0 0 0 0 0 0 0 0 0 0 0 0 0
0 0 0 0 0 0 0 0 0 0 0 0 0 0 0 0 0 0 0 0 0 0 0 0 0 0 0 0 0 0 0 0 0 0 0 0 0 0 0 0 0 0 0
0 0 0 0 0 0 0 0 0 0 0 0 0 0 0 0 0 0 0 0 0 0 0 0 0 0 0 0 0 0 0 0 0 0 0 0 0 0 0 0 0 0 0
0 0 0 0 0 0 0 0 0 0 0 0 0 0 0 0 0 0 0 0 0 0 0 0 0 0 0 0 0 0 0 0 0 0 0 0 0 0 0 0 0 0 0
0 0 0 0 0 0 0 0 0 0 0 0 0 0 0 0 0 0 0 0 0 0 0 0 0 0 0 0 0 0 0 0 0 0 0 0 0 0 0 0 0 0 0
0 0 0 0 0 0 0 0 0 0 0 0 0 0 0 0 0 0 0 0 0 0 0 0 0 0 0 0 0 0 0 0 0 0 0 0 0 0 0 0 0 0 0
0 0 0 0 0 0 0 0 0 0 0 0 0 0 0 0 0 0 0 0 0 0 0 0 0 0 0 0 0 0 0 0 0 0 0 0 0 0 0 0 0 0 0
0 0 0 0 0 0 0 0 0 0 0 0 0 0 0 0 0 0 0 0 0 0 0 0 0 0 0 0 0 0 0 0 0 0 0 0 0 0 0 0 0 0 0
0 0 0 0 0 0 0 0 0 0 0 0 0 0 0 0 0 0 0 0 0 0 0 0 0 0 0 0 0 0 0 0 0 0 0 0 0 0 0 0 0 0 0
0 0 0 0 0 0 0 0 0 0 0 0 0 0 0 0 0 0 0 0 0 0 0 0 0 0 0 0 0 0 0 0 0 0 0 0 0 0 0 0 0 0 0
0 0 0 0 0 0 0 0 0 0 0 0 0 0 0 0 0 0 0 0 0 0 0 0 0 0 0 0 0 0 0 0 0 0 0 0 0 0 0 0 0 0 0
0 0 0 0 0 0 0 0 0 0 0 0 0 0 0 0 0 0 0 0 0 0 0 0 0 0 0 0 0 0 0 0 0 0 0 0 0 0 0 0 0 0 0
0 0 0 0 0 0 0 0 0 0 0 0 0 0 0 0 0 0 0 0 0 0 0 0 0 0 0 0 0 0 0 0 0 0 0 0 0 0 0 0 0 0 0
0 0 0 0 0 0 0 0 0 0 0 0 0 0 0 0 0 0 0 0 0 0 0 0 0 0 0 0 0 0 0 0 0 0 0 0 0 0 0 0 0 0 0
0 0 0 0 0 0 0 0 0 0 0 0 0 0 0 0 0 0 0 0 0 0 0 0 0 0 0 0 0 0 0 0 0 0 0 0 0 0 0 0 0 0 0
0 0 0 0 0 0 0 0 0 0 0 0 0 0 0 0 0 0 0 0 0 0 0 0 0 0 0 0 0 0 0 0 0 0 0 0 0 0 0 0 0 0 0
0 0 0 0 0 0 0 0 0 0 0 0 0 0 0 0 0 0 0 0 0 0 0 0 0 0 0 0 0 0 0 0 0 0 0 0 0 0 0 0 0 0 0
0 0 0 0 0 0 0 0 0 0 0 0 0 0 0 0 0 0 0 0 0 0 0 0 0 0 0 0 0 0 0 0 0 0 0 0 0 0 0 0 0 0 0
0 0 0 0 0 0 0 0 0 0 0 0 0 0 0 0 0 0 0 0 0 0 0 0 0 0 0 0 0 0 0 0 0 0 0 0 0 0 0 0 0 0 0
0 0 0 0 0 0 0 0 0 0 0 0 0 0 0 0 0 0 0 0 0 0 0 0 0 0 0 0 0 0 0 0 0 0 0 0 0 0 0 0 0 0 0
0 0 0 0 0 0 0 0 0 0 0 0 0 0 0 0 0 0 0 0 0 0 0 0 0 0 0 0 0 0 0 0 0 0 0 0 0 0 0 0 0 0 0
0 0 0 0 0 0 0 0 0 0 0 0 0 0 0 0 0 0 0 0 0 0 0 0 0 0 0 0 0 0 0 0 0 0 0 0 0 0 0 0 0 0 0
Wind_Speed_500mb
23 20 16 12 9 7 8 11 15 18 22 22 24 25 27 29 33 36 38 39 41 39 39 41 42 43 44 44 43 44 48 50 67 78 77 74 73 71 67 64 64 67 66
18 15 12 11 10 9 7 5 4 3 2 1 3 6 9 11 13 15 18 20 22 24 27 29 31 34 37 39 42 45 49 50 60 77 78 79 80 77 77 78 74 70 70
17 15 14 13 13 11 10 9 8 6 5 4 4 6 8 10 13 16 18 20 22 25 28 32 35 38 41 44 46 50 53 55 59 69 79 76 80 79 81 78 77 75 71
21 18 16 15 14 11 10 9 8 7 5 4 4 6 8 10 12 15 18 21 24 27 30 33 35 37 40 42 44 46 49 53 56 63 72 76 76 79 79 80 84 81 84
24 22 21 19 18 16 15 13 11 9 7 7 8 10 13 16 18 21 25 27 29 30 33 35 38 39 41 43 47 48 49 53 57 63 69 73 77 76 78 80 86 89 91
28 28 25 22 19 18 14 10 7 5 7 11 13 17 20 23 24 27 29 32 35 39 40 42 44 45 47 48 49 51 52 54 57 59 65 70 76 74 75 76 79 83 93
36 32 29 24 20 16 10 5 0 5 10 14 17 21 25 28 30 33 35 37 39 41 44 46 46 48 50 52 53 54 54 55 57 60 67 68 73 67 67 72 71 73 83
40 35 30 24 19 13 7 6 6 9 13 16 18 21 25 28 30 31 33 35 37 39 42 45 48 47 47 51 57 59 59 59 59 61 63 67 65 65 57 61 68 75 83
44 38 32 26 19 13 10 7 7 10 12 15 16 18 22 25 29 32 36 39 41 42 44 47 51 55 56 57 60 63 66 65 62 62 59 57 53 58 55 60 68 70 76
44 37 29 24 19 13 8 6 7 9 10 12 14 17 21 28 32 37 43 48 53 55 56 56 58 60 61 59 60 61 67 68 66 66 64 62 64 59 48 46 54 57 57
43 34 27 21 14 9 6 5 4 5 8 12 17 23 26 29 33 38 43 48 53 56 56 59 60 62 61 57 51 55 61 61 65 63 65 63 57 47 44 38 39 45 48
39 32 24 18 14 11 7 4 3 6 9 14 18 22 27 33 38 42 46 50 54 59 62 65 65 65 59 56 54 47 49 56 61 62 61 56 52 52 49 41 40 40 45
40 30 23 17 11 9 6 3 4 9 15 19 23 26 29 33 39 46 51 54 57 62 63 65 66 67 65 66 59 45 48 53 65 61 59 54 50 48 46 43 39 35 38
35 27 19 16 14 12 9 4 4 8 13 19 24 29 34 40 46 51 58 60 61 63 66 69 67 63 59 56 55 41 43 50 53 55 54 53 52 50 45 40 45 40 40
30 24 18 21 21 17 11 5 4 7 12 18 24 33 40 44 49 57 61 62 62 61 66 63 63 61 62 60 55 45 33 42 46 50 51 52 51 51 51 39 38 41 39
26 26 32 27 24 20 13 9 5 9 14 19 26 33 38 45 51 54 57 61 56 60 56 58 56 54 54 55 53 51 46 46 47 49 47 46 49 47 46 39 36 40 38
32 35 31 30 25 19 16 10 9 11 15 21 26 36 45 51 53 53 56 53 52 54 53 51 50 51 51 51 51 50 51 47 46 45 43 41 37 40 39 38 39 33 33
41 36 33 29 25 21 17 14 13 12 15 20 29 40 46 45 47 49 52 50 48 46 48 50 50 49 49 49 49 49 47 45 44 44 41 38 32 32 32 31 34 36 35
37 38 37 32 25 21 19 18 18 18 20 26 33 37 45 42 42 45 47 49 49 45 44 43 45 48 48 47 46 45 45 45 44 42 40 38 36 35 35 33 31 30 33
46 45 39 31 27 25 23 22 21 21 25 31 36 40 44 45 44 42 42 42 41 42 43 43 42 41 41 42 41 41 40 40 40 40 39 37 35 34 33 32 30 32 31
49 46 40 35 30 27 26 24 22 22 26 31 34 37 42 44 42 42 41 40 39 40 40 41 41 40 38 37 37 36 36 36 36 36 36 35 35 34 33 32 31 30 29
51 45 39 35 32 31 29 26 24 24 28 29 31 33 36 37 35 37 38 37 37 40 43 43 41 42 43 42 42 40 38 38 38 38 37 36 36 35 34 32 30 29 28
50 43 39 38 34 32 30 27 26 26 28 30 31 31 32 31 31 34 36 38 38 39 40 43 44 42 42 42 42 42 42 40 40 40 41 40 40 39 39 38 37 35 32
48 43 42 37 36 34 32 30 28 28 29 30 31 32 32 32 32 35 39 41 42 43 44 45 46 47 45 44 44 43 43 41 39 38 38 38 37 35 34 33 33 32 32
47 46 42 40 39 37 35 34 31 31 31 32 34 34 34 36 38 41 45 48 50 50 48 47 47 45 43 40 36 33 31 31 31 33 33 31 30 32 32 32 33 32 31
50 49 44 41 40 39 38 36 34 33 33 36 37 37 40 43 44 47 50 53 54 52 49 45 41 38 35 33 33 32 32 31 32 34 35 34 33 32 32 32 31 31 30
Wind_Direction_500mb
154 159 165 166 174 196 217 222 226 230 235 241 246 253 259 264 268 272 275 275 276 281 284 285 287 287 287 289 289 288 286 286 287 292 297 302 303 305 306 304 303 300 297
163 162 161 157 157 163 167 165 158 148 169 234 281 287 290 298 300 302 303 304 304 302 301 300 301 302 302 300 296 294 291 290 291 295 300 304 305 309 309 308 308 307 305
175 175 168 158 151 147 140 132 117 102 82 48 13 338 330 328 323 320 316 315 315 312 310 310 310 309 307 304 301 299 297 296 295 296 299 303 305 308 308 308 308 306 302
183 179 177 171 161 153 142 136 124 119 101 74 34 7 357 353 346 339 335 333 331 327 324 322 319 316 314 311 307 305 302 299 298 298 300 303 305 307 309 311 309 308 307
180 176 171 158 149 141 136 133 122 109 94 65 27 359 348 341 335 334 332 329 326 324 323 323 321 320 318 317 316 314 311 308 307 306 305 305 306 310 310 310 307 308 307
182 174 164 157 156 152 149 136 109 55 9 353 339 331 329 326 326 326 325 324 325 324 322 321 319 317 316 314 311 310 310 309 307 304 302 301 303 304 303 302 302 305 307
182 174 171 171 168 161 160 150 241 313 318 319 323 325 325 326 325 324 323 323 322 320 318 315 312 311 311 309 305 304 303 302 303 302 301 303 302 301 300 298 301 301 298
180 177 175 174 176 180 192 238 285 307 311 314 323 326 324 325 327 328 327 326 325 323 321 319 318 318 316 313 308 306 304 304 303 304 303 304 304 308 308 304 302 300 299
184 182 180 182 189 201 214 251 293 312 321 327 334 340 338 339 338 335 332 331 330 330 330 328 328 328 327 323 315 311 310 309 309 307 305 305 303 304 301 300 296 303 302
185 183 184 192 201 208 225 273 304 316 328 341 348 351 350 346 344 340 339 340 339 336 336 334 332 330 328 326 323 318 312 314 314 312 312 307 304 306 302 295 296 299 299
187 188 190 198 201 219 244 263 290 325 342 347 352 353 352 347 346 344 340 338 337 333 331 329 328 326 324 321 318 312 314 315 309 306 305 306 311 314 308 303 298 300 299
186 188 193 194 202 212 224 238 288 331 346 353 358 358 353 347 343 341 338 335 332 327 326 324 324 324 321 317 316 312 306 314 317 311 311 313 316 310 309 303 296 296 295
185 188 192 194 204 217 232 264 340 354 350 354 356 357 354 349 343 337 334 331 328 324 322 321 320 321 322 321 325 319 314 314 323 316 314 314 314 314 314 310 303 302 298
185 183 185 194 206 209 213 234 326 338 349 352 350 347 346 342 336 332 330 327 325 323 320 320 321 320 320 321 319 320 319 311 318 318 315 314 314 316 315 316 313 307 303
182 189 202 219 207 208 210 231 277 321 339 342 340 342 336 333 333 332 329 328 327 324 320 321 323 323 321 319 318 318 313 313 314 317 317 314 313 315 314 306 305 310 305
202 220 216 202 202 200 210 218 249 308 323 328 335 329 328 330 330 329 325 326 328 322 324 323 322 322 322 323 321 311 305 306 308 311 314 314 313 312 313 311 304 307 308
221 214 206 198 202 210 212 222 273 296 311 318 322 326 328 328 329 326 324 330 325 325 322 321 321 322 323 324 324 324 322 320 314 311 305 308 313 314 314 310 311 310 308
211 205 203 205 211 220 230 243 263 275 288 311 324 326 326 331 329 328 327 328 325 322 323 324 323 322 322 322 322 324 324 322 321 319 316 305 305 306 307 312 316 319 317
206 207 213 214 220 233 240 250 263 276 297 314 321 325 323 332 332 331 331 329 327 326 325 324 322 322 323 322 322 322 322 323 324 324 322 318 315 310 303 299 302 302 305
210 213 215 217 229 235 246 256 267 284 304 317 323 327 326 332 334 336 334 331 329 328 328 329 328 327 325 325 327 328 327 325 324 323 324 325 323 319 315 313 309 305 305
214 216 218 223 234 242 249 257 266 284 303 314 322 326 328 331 334 333 333 332 330 328 329 330 330 330 329 328 328 330 331 331 331 331 331 332 332 330 325 320 315 309 309
220 221 225 232 237 243 247 253 267 286 300 310 318 322 322 324 326 325 325 326 327 325 324 324 324 324 325 325 325 326 328 328 328 328 330 333 333 331 328 327 325 323 322
222 225 232 237 241 248 251 256 269 283 294 303 310 313 313 314 314 315 316 318 319 317 315 314 315 315 314 314 315 316 318 320 322 324 325 327 329 329 330 330 327 325 323
224 229 238 242 246 247 251 257 266 278 288 297 301 303 303 303 306 307 307 308 307 306 305 304 303 304 304 304 305 306 307 309 311 313 315 319 326 327 328 328 328 327 324
228 237 243 243 245 249 252 257 265 274 284 291 293 295 295 296 299 301 302 302 302 301 300 298 298 299 300 302 304 307 310 314 316 317 319 323 323 323 327 329 331 331 330
232 237 239 242 246 250 254 259 265 273 278 283 287 290 292 294 298 300 300 299 299 299 299 297 295 295 296 298 301 304 307 310 311 312 313 315 317 317 319 322 323 324 326
Wind_Speed_850mb
23 20 16 12 9 7 8 11 15 18 22 22 24 25 27 29 33 36 38 39 41 39 39 41 42 43 44 44 43 44 48 50 67 78 77 74 73 71 67 64 64 67 66
18 15 12 11 10 9 7 5 4 3 2 1 3 6 9 11 13 15 18 20 22 24 27 29 31 34 37 39 42 45 49 50 60 77 78 79 80 77 77 78 74 70 70
17 15 14 13 13 11 10 9 8 6 5 4 4 6 8 10 13 16 18 20 22 25 28 32 35 38 41 44 46 50 53 55 59 69 79 76 80 79 81 78 77 75 71
21 18 16 15 14 11 10 9 8 7 5 4 4 6 8 10 12 15 18 21 24 27 30 33 35 37 40 42 44 46 49 53 56 63 72 76 76 79 79 80 84 81 84
24 22 21 19 18 16 15 13 11 9 7 7 8 10 13 16 18 21 25 27 29 30 33 35 38 39 41 43 47 48 49 53 57 63 69 73 77 76 78 80 86 89 91
28 28 25 22 19 18 14 10 7 5 7 11 13 17 20 23 24 27 29 32 35 39 40 42 44 45 47 48 49 51 52 54 57 59 65 70 76 74 75 76 79 83 93
36 32 29 24 20 16 10 5 0 5 10 14 17 21 25 28 30 33 35 37 39 41 44 46 46 48 50 52 53 54 54 55 57 60 67 68 73 67 67 72 71 73 83
40 35 30 24 19 13 7 6 6 9 13 16 18 21 25 28 30 31 33 35 37 39 42 45 48 47 47 51 57 59 59 59 59 61 63 67 65 65 57 61 68 75 83
44 38 32 26 19 13 10 7 7 10 12 15 16 18 22 25 29 32 36 39 41 42 44 47 51 55 56 57 60 63 66 65 62 62 59 57 53 58 55 60 68 70 76
44 37 29 24 19 13 8 6 7 9 10 12 14 17 21 28 32 37 43 48 53 55 56 56 58 60 61 59 60 61 67 68 66 66 64 62 64 59 48 46 54 57 57
43 34 27 21 14 9 6 5 4 5 8 12 17 23 26 29 33 38 43 48 53 56 56 59 60 62 61 57 51 55 61 61 65 63 65 63 57 47 44 38 39 45 48
39 32 24 18 14 11 7 4 3 6 9 14 18 22 27 33 38 42 46 50 54 59 62 65 65 65 59 56 54 47 49 56 61 62 61 56 52 52 49 41 40 40 45
40 30 23 17 11 9 6 3 4 9 15 19 23 26 29 33 39 46 51 54 57 62 63 65 66 67 65 66 59 45 48 53 65 61 59 54 50 48 46 43 39 35 38
35 27 19 16 14 12 9 4 4 8 13 19 24 29 34 40 46 51 58 60 61 63 66 69 67 63 59 56 55 41 43 50 53 55 54 53 52 50 45 40 45 40 40
30 24 18 21 21 17 11 5 4 7 12 18 24 33 40 44 49 57 61 62 62 61 66 63 63 61 62 60 55 45 33 42 46 50 51 52 51 51 51 39 38 41 39
26 26 32 27 24 20 13 9 5 9 14 19 26 33 38 45 51 54 57 61 56 60 56 58 56 54 54 55 53 51 46 46 47 49 47 46 49 47 46 39 36 40 38
32 35 31 30 25 19 16 10 9 11 15 21 26 36 45 51 53 53 56 53 52 54 53 51 50 51 51 51 51 50 51 47 46 45 43 41 37 40 39 38 39 33 33
41 36 33 29 25 21 17 14 13 12 15 20 29 40 46 45 47 49 52 50 48 46 48 50 50 49 49 49 49 49 47 45 44 44 41 38 32 32 32 31 34 36 35
37 38 37 32 25 21 19 18 18 18 20 26 33 37 45 42 42 45 47 49 49 45 44 43 45 48 48 47 46 45 45 45 44 42 40 38 36 35 35 33 31 30 33
46 45 39 31 27 25 23 22 21 21 25 31 36 40 44 45 44 42 42 42 41 42 43 43 42 41 41 42 41 41 40 40 40 40 39 37 35 34 33 32 30 32 31
49 46 40 35 30 27 26 24 22 22 26 31 34 37 42 44 42 42 41 40 39 40 40 41 41 40 38 37 37 36 36 36 36 36 36 35 35 34 33 32 31 30 29
51 45 39 35 32 31 29 26 24 24 28 29 31 33 36 37 35 37 38 37 37 40 43 43 41 42 43 42 42 40 38 38 38 38 37 36 36 35 34 32 30 29 28
50 43 39 38 34 32 30 27 26 26 28 30 31 31 32 31 31 34 36 38 38 39 40 43 44 42 42 42 42 42 42 40 40 40 41 40 40 39 39 38 37 35 32
48 43 42 37 36 34 32 30 28 28 29 30 31 32 32 32 32 35 39 41 42 43 44 45 46 47 45 44 44 43 43 41 39 38 38 38 37 35 34 33 33 32 32
47 46 42 40 39 37 35 34 31 31 31 32 34 34 34 36 38 41 45 48 50 50 48 47 47 45 43 40 36 33 31 31 31 33 33 31 30 32 32 32 33 32 31
50 49 44 41 40 39 38 36 34 33 33 36 37 37 40 43 44 47 50 53 54 52 49 45 41 38 35 33 33 32 32 31 32 34 35 34 33 32 32 32 31 31 30
Wind_Direction_850mb
154 159 165 166 174 196 217 222 226 230 235 241 246 253 259 264 268 272 275 275 276 281 284 285 287 287 287 289 289 288 286 286 287 292 297 302 303 305 306 304 303 300 297
163 162 161 157 157 163 167 165 158 148 169 234 281 287 290 298 300 302 303 304 304 302 301 300 301 302 302 300 296 294 291 290 291 295 300 304 305 309 309 308 308 307 305
175 175 168 158 151 147 140 132 117 102 82 48 13 338 330 328 323 320 316 315 315 312 310 310 310 309 307 304 301 299 297 296 295 296 299 303 305 308 308 308 308 306 302
183 179 177 171 161 153 142 136 124 119 101 74 34 7 357 353 346 339 335 333 331 327 324 322 319 316 314 311 307 305 302 299 298 298 300 303 305 307 309 311 309 308 307
180 176 171 158 149 141 136 133 122 109 94 65 27 359 348 341 335 334 332 329 326 324 323 323 321 320 318 317 316 314 311 308 307 306 305 305 306 310 310 310 307 308 307
182 174 164 157 156 152 149 136 109 55 9 353 339 331 329 326 326 326 325 324 325 324 322 321 319 317 316 314 311 310 310 309 307 304 302 301 303 304 303 302 302 305 307
182 174 171 171 168 161 160 150 241 313 318 319 323 325 325 326 325 324 323 323 322 320 318 315 312 311 311 309 305 304 303 302 303 302 301 303 302 301 300 298 301 301 298
180 177 175 174 176 180 192 238 285 307 311 314 323 326 324 325 327 328 327 326 325 323 321 319 318 318 316 313 308 306 304 304 303 304 303 304 304 308 308 304 302 300 299
184 182 180 182 189 201 214 251 293 312 321 327 334 340 338 339 338 335 332 331 330 330 330 328 328 328 327 323 315 311 310 309 309 307 305 305 303 304 301 300 296 303 302
185 183 184 192 201 208 225 273 304 316 328 341 348 351 350 346 344 340 339 340 339 336 336 334 332 330 328 326 323 318 312 314 314 312 312 307 304 306 302 295 296 299 299
187 188 190 198 201 219 244 263 290 325 342 347 352 353 352 347 346 344 340 338 337 333 331 329 328 326 324 321 318 312 314 315 309 306 305 306 311 314 308 303 298 300 299
186 188 193 194 202 212 224 238 288 331 346 353 358 358 353 347 343 341 338 335 332 327 326 324 324 324 321 317 316 312 306 314 317 311 311 313 316 310 309 303 296 296 295
185 188 192 194 204 217 232 264 340 354 350 354 356 357 354 349 343 337 334 331 328 324 322 321 320 321 322 321 325 319 314 314 323 316 314 314 314 314 314 310 303 302 298
185 183 185 194 206 209 213 234 326 338 349 352 350 347 346 342 336 332 330 327 325 323 320 320 321 320 320 321 319 320 319 311 318 318 315 314 314 316 315 316 313 307 303
182 189 202 219 207 208 210 231 277 321 339 342 340 342 336 333 333 332 329 328 327 324 320 321 323 323 321 319 318 318 313 313 314 317 317 314 313 315 314 306 305 310 305
202 220 216 202 202 200 210 218 249 308 323 328 335 329 328 330 330 329 325 326 328 322 324 323 322 322 322 323 321 311 305 306 308 311 314 314 313 312 313 311 304 307 308
221 214 206 198 202 210 212 222 273 296 311 318 322 326 328 328 329 326 324 330 325 325 322 321 321 322 323 324 324 324 322 320 314 311 305 308 313 314 314 310 311 310 308
211 205 203 205 211 220 230 243 263 275 288 311 324 326 326 331 329 328 327 328 325 322 323 324 323 322 322 322 322 324 324 322 321 319 316 305 305 306 307 312 316 319 317
206 207 213 214 220 233 240 250 263 276 297 314 321 325 323 332 332 331 331 329 327 326 325 324 322 322 323 322 322 322 322 323 324 324 322 318 315 310 303 299 302 302 305
210 213 215 217 229 235 246 256 267 284 304 317 323 327 326 332 334 336 334 331 329 328 328 329 328 327 325 325 327 328 327 325 324 323 324 325 323 319 315 313 309 305 305
214 216 218 223 234 242 249 257 266 284 303 314 322 326 328 331 334 333 333 332 330 328 329 330 330 330 329 328 328 330 331 331 331 331 331 332 332 330 325 320 315 309 309
220 221 225 232 237 243 247 253 267 286 300 310 318 322 322 324 326 325 325 326 327 325 324 324 324 324 325 325 325 326 328 328 328 328 330 333 333 331 328 327 325 323 322
222 225 232 237 241 248 251 256 269 283 294 303 310 313 313 314 314 315 316 318 319 317 315 314 315 315 314 314 315 316 318 320 322 324 325 327 329 329 330 330 327 325 323
224 229 238 242 246 247 251 257 266 278 288 297 301 303 303 303 306 307 307 308 307 306 305 304 303 304 304 304 305 306 307 309 311 313 315 319 326 327 328 328 328 327 324
228 237 243 243 245 249 252 257 265 274 284 291 293 295 295 296 299 301 302 302 302 301 300 298 298 299 300 302 304 307 310 314 316 317 319 323 323 323 327 329 331 331 330
232 237 239 242 246 250 254 259 265 273 278 283 287 290 292 294 298 300 300 299 299 299 299 297 295 295 296 298 301 304 307 310 311 312 313 315 317 317 319 322 323 324 326